Regional Weather Roundup
Issued by NWS

Home | Current Version | Previous Version | Graphics & Text | Print | Product List | Glossary Off
Versions: 1 2 3 4 5 6 7 8 9 10 11 12 13 14 15 16 17 18 19 20 21 22 23 24 25 26 27 28 29 30 31 32 33 34 35 36 37 38 39 40 41 42 43 44 45 46 47 48 49 50

000
ASUS43 KMKX 051059
RWRWI

WISCONSIN REGIONAL WEATHER ROUNDUP
NATIONAL WEATHER SERVICE MILWAUKEE/SULLIVAN WI
500 AM CST THU MAR 05 2015

NOTE: "FAIR" INDICATES FEW OR NO CLOUDS BELOW 12,000 FEET WITH NO
SIGNIFICANT WEATHER AND/OR OBSTRUCTIONS TO VISIBILITY.

WIZ001-002-006>008-014>016-023>028-051200-
NORTHWEST WISCONSIN

CITY           SKY/WX    TMP DP  RH WIND       PRES   REMARKS
SUPERIOR ARPT  PTCLDY   -13 -18  77 SW7       30.42R WCI -29
ASHLAND        CLEAR    -10 -16  74 SW6       30.39R WCI -23
HAYWARD        CLEAR    -25 -30  78 CALM      30.36R
SIREN          CLEAR    -19 -24  75 CALM      30.41R
CUMBERLAND     CLEAR    -15 -22  70 W3        30.37R
RICE LAKE      CLEAR    -17 -24  72 CALM      30.40S
CHETEK         CLEAR    -17 -21  78 CALM      30.40R
LADYSMITH      CLEAR    -20 -27  71 CALM      30.37S
EAU CLAIRE     NOT AVBL
MENOMONIE      CLEAR     -8 -15  69 W3        30.43R
NEW RICHMOND   CLEAR    -14 -19  76 CALM      30.42R
OSCEOLA        CLEAR    -16 -21  77 CALM      30.47R
$$

WIZ003>005-009-010-017-018-051200-
NORTH CENTRAL WISCONSIN

CITY           SKY/WX    TMP DP  RH WIND       PRES   REMARKS
MANITOWISH WTR CLEAR    -19 -24  79 CALM      30.27S
ARBOR VITAE    CLEAR    -17 -23  73 CALM      30.28R
WOODRUFF       CLEAR    -17 -23  73 CALM      30.28R
RHINELANDER    CLEAR    -19 -25  73 W3        30.28R
EAGLE RIVER    CLOUDY   -16 -23  72 CALM      30.26S
LAND O LAKES   CLOUDY   -14 -19  76 CALM      30.26R
PHILLIPS       CLEAR    -22 -28  76 CALM      30.30S
TOMAHAWK       CLEAR    -23 -29  73 CALM      30.30S
MEDFORD        CLEAR    -14 -19  79 CALM      30.32R
MERRILL        CLEAR    -19 -25  76 CALM      30.32R
$$

WIZ029-030-035-036-043>047-051200-
CENTRAL WISCONSIN

CITY           SKY/WX    TMP DP  RH WIND       PRES   REMARKS
WAUSAU         CLEAR     -8 -16  67 NW8       30.33R WCI -24
MOSINEE        CLEAR     -9 -17  70 NW5       30.35R WCI -21
MARSHFIELD     CLEAR     -9 -17  68 NW6       30.35R WCI -22
STEVENS POINT  CLEAR    -16 -22  74 CALM      30.37R
WAUPACA        CLEAR     -3 -13  64 W5        30.39R WCI -14
WAUTOMA        NOT AVBL
WISC RAPIDS    CLEAR    -11 -18  71 CALM      30.39R
CAMP DOUGLAS   NOT AVBL
$$

WIZ011>013-019>022-031-037>040-048>050-051200-
NORTHEAST WISCONSIN

CITY           SKY/WX    TMP DP  RH WIND       PRES   REMARKS
ANTIGO         CLEAR    -19 -24  80 CALM      30.29R
SHAWANO        CLEAR     -4 -13  67 CALM      30.38R
OCONTO         CLEAR    -11 -15  82 W3        30.38R
STURGEON BAY   CLEAR     -6 -15  65 CALM      30.37R
GREEN BAY      CLEAR     -6 -14  68 NW8       30.38R WCI -21
MANITOWOC      NOT AVBL
APPLETON       NOT AVBL
CLINTONVILLE   CLEAR     -6 -13  71 NW6       30.37R WCI -18
OSHKOSH        CLEAR     -2 -12  62 W5        30.37S WCI -12
$$

WIZ032>034-041-042-053>061-051200-
SOUTHWEST WISCONSIN

CITY           SKY/WX    TMP DP  RH WIND       PRES   REMARKS
LA CROSSE      CLEAR     -3 -11  68 N3        30.45R
SPARTA         CLEAR    -12 -17  79 SE3       30.43R
VIROQUA        CLEAR     -4 -10  75 W5        30.36R WCI -15
BOSCOBEL       CLEAR     -8 -14  74 CALM      30.45R
PRAIRIE DU CHI CLEAR     -3 -11  66 CALM      30.45R
PLATTEVILLE    CLEAR     -2  -9  72 W6        30.38S WCI -14
$$

WIZ056-057-062-063-064-067-068-051200-
SOUTH CENTRAL WISCONSIN

CITY           SKY/WX    TMP DP  RH WIND       PRES   REMARKS
REEDSBURG      CLEAR     -3 -10  71 NW3       30.39R
BARABOO/DELLS  CLEAR     -4 -13  67 CALM      30.38R
LONE ROCK      NOT AVBL
MINERAL POINT  CLEAR      0  -9  65 N3        30.36R
MADISON        CLEAR     -4 -12  68 NW3       30.39R
MIDDLETON      CLEAR     -1 -10  63 NW3       30.38S
WATERTOWN      CLEAR      0  -9  64 N5        30.37R WCI -10
MONROE         CLEAR      1  -6  71 N7        30.35S WCI -11
JANESVILLE     CLEAR      0  -6  78 CALM      30.38R
$$

WIZ051-052-058>065-066-070>072-051200-
SOUTHEAST WISCONSIN

CITY           SKY/WX    TMP DP  RH WIND       PRES   REMARKS
MILWAUKEE      PTCLDY     5 -10  50 NW8       30.38R WCI  -8
WAUKESHA       CLEAR      0 -11  60 NW3       30.37R
MILWAUKEE/TIMM CLEAR      3 -11  51 N7        30.39R WCI  -9
RACINE         CLEAR      3 -10  54 NW7       30.39R WCI  -9
BURLINGTON     CLEAR    -10 -17  71 NW3       30.38R
KENOSHA        CLEAR     -6 -14  68 NW6       30.37R WCI -19
FOND DU LAC    FLURRIES  -2 -12  62 NW6       30.38R WCI -14
SHEBOYGAN      CLEAR     -1 -12  59 NW6       30.37S WCI -13
WEST BEND      CLEAR      0 -11  60 NW6       30.36S WCI -12
JUNEAU         CLEAR     -2 -11  65 NW5       30.38R WCI -12
$$

LSZ147-162-051200-
LAKE SUPERIOR

STATION/POSITION TIME  TEMP    WIND        PRES    WAVE
                       AIR SEA DIR/SP/G            HT/PER
                 (UTC) (F)     (DEG/KT/KT) (MB)    (FT/S)
DEVILS ISLAND    1000    4     270/ 12/ 13 1029.9R
PORT WING        1040   -8     200/  7/ 10 1029.1S
SAXON HARBOR     1000   -7     190/  7/ 10 1028.8R
$$

LMZ867-665-643>646-051200-
LAKE MICHIGAN

STATION/POSITION TIME  TEMP    WIND        PRES    WAVE
                       AIR SEA DIR/SP/G            HT/PER
                 (UTC) (F)     (DEG/KT/KT) (MB)    (FT/S)
NORTHPORT PIER   1014   -2     280/  7/ 12 1028.1R
KEWAUNEE LAKESHO 1000   -4     300/  5/  7 1027.4R
SHEBOYGAN LAKESH 1000    4     310/ 10/ 12 1030.4R
PORT WASHINGTON  1000    4     310/  7/  8 1029.5
MILWAUKEE LAKESH 1000    6     330/  9/ 13   N/A
KENOSHA   LAKESH 1000    5     290/  8/ 10 1028.1R
$$

TC  - TEMPERATURE IN CELSIUS
VSB - VISIBILITY IN STATUTE MILES
WCI - WIND CHILL INDEX
HX  - HEAT INDEX




USA.gov is the U.S. government's official web portal to all federal, state and local government web resources and services.